STARLINK-32346, 61849

Orbit data source: Space-Track

STARLINK-32346, 61849 is a payload satellite owned by SpaceX/Seattle (US) in LEO that was launched on Thu, 07 Nov 2024 UTC via an FALCON 9 launch vehicle from the Air Force Eastern Test Range (AFETR). Payload-class satellites include a variety of spacecraft equipped with specific instruments for various scientific and technological missions. These include communications satellites like Starlink; space stations such as the ISS; scientific satellites like the Hubble; Earth observation satellites from companies like Planet Labs, Umbra, and HawkEye 360; GPS; miniature CubeSats for education and research; and military/defense satellites.

Loading next visibility...
Identifier
61849, 2024-202E
Orbit
LEO
Country
Flag of USUS
Related business
Manufacturer
SpaceX/Seattle
Mission
Operational Commercial Communications
Bus & Motor
STARLINK V2M, Unknown motor
Mass
730 kg wet, ~700 kg dry
Launch date (UTC)
2024-11-07 (2 years ago)
Launch vehicle
FALCON 9
Launch site
Air Force Eastern Test Range (AFETR)
Object type
Payload
Rocket body
Debris
Shape & HBR
Box + 2 Pan, 17.7 m
Radar Cross Section
33.884 m², Large (>1 m²)

Expand to show TLE details & history
Last TLE update: 1 day ago

TLE from 1 day ago
0 STARLINK-32346
1 61849U 24202E   26257.31858321  .00000149  00000-0  14925-4 0  9990
2 61849  43.0007 241.6670 0001097 272.7585  87.3141 15.27576735104303
Epoch: 2026-09-14T07:38Z
TLE epoch observation values (Epoch: 2026-09-14T07:38:45.589Z)
Latitude
-0.00002°
Longitude
133.67643°
Altitude
482.799 km
Speed
7.626 km/s
True Right ascension
16h 06m 40s
True Declination
0° 00' 00"
Sunlit
Object was in daylight at epoch
Visualization orbit readout
Latitude
Unknown
Longitude
Unknown
Altitude
Unknown
Speed
Unknown
Apparent Right ascension
Unknown
Apparent Declination
Unknown
Sunlit
N/A
Visualization observer readout
Local Sidereal Time
05:37:34
Azimuth
Unknown
Elevation
Unknown
Doppler factor
Unknown
Orbital elements
Apogee altitude
485.757 km
Perigee altitude
484.251 km
Semi-major axis
6,863.141 km
Eccentricity
0.00011
Inclination
43.0007°
RAAN
241.667°
Arg. of periapsis
272.7585°
True anomaly
87.32666°
Mean anomaly
87.3141°
Eccentric anomaly
87.32038°
Mean motion
3.81732 °/min
Orbital period
94.31 mins
BSTAR
0.000014925
Loading maneuver chart data...
Computing Atmospheric mass density...
Loading historical data...
Loading historical data...
Loading historical data...
Loading historical data...
Loading historical data...
Loading historical data...
Loading historical data...

Documentation

Showing up to 5 results
|